Location: Balch Camp
(36.9030°N, 119.1232°W)
Time: 04:39:58
(UTC+00:00)

Daily predictions for brighter satellites

Satellite Brightness Start Highest point End
(mag) Time Altitude Azimuth Time Altitude Azimuth Time Altitude Azimuth
Cosmos 2266 Rocket 4.0 01:20:28 10° N 01:26:43 77° E 01:33:03 10° S
Milstar 3 3.8 01:20:22 10° SW 01:27:13 36° S 01:33:18 10° ESE
SMAP 3.1 01:23:32 10° SSE 01:28:10 84° ENE 01:32:51 10° N
Cosmos 1809 Rocket 4.4 01:24:30 10° N 01:30:37 68° E 01:36:40 10° SSE
Cosmos 1400 Rocket 4.0 01:28:07 10° SE 01:31:27 24° E 01:34:46 10° NE
H-2A R/B 4.3 01:27:22 10° S 01:31:29 40° W 01:35:43 10° NNW
Cosmos 1689 Rocket 3.2 01:29:15 10° NE 01:31:39 23° E 01:34:02 10° SSE
CORIOLIS 4.1 01:27:51 10° SSE 01:33:10 77° ENE 01:38:32 10° N
ADEOS Rocket 4.2 01:27:26 10° N 01:33:42 54° WNW 01:40:38 10° SSW
USA 281 3.3 01:27:17 10° SSE 01:33:50 87° ENE 01:40:26 10° NNW
COSMOS 2487 2.3 01:31:54 10° NNW 01:35:21 77° ENE 01:38:45 10° SSE
Cosmos 1331 Rocket 4.0 01:34:19 10° SSW 01:39:29 89° ESE 01:44:40 10° NNE
COSMO-SKYMED 1 2.9 01:36:48 10° NNE 01:40:59 45° E 01:45:08 10° S
OAO 2 Rocket 4.2 01:37:47 10° SW 01:42:20 36° SSE 01:46:47 10° E
YAOGAN 6 4.1 01:39:10 10° S 01:42:36 41° W 01:46:06 10° NNW
Okean O Rocket 2.1 01:39:01 10° S 01:43:21 65° WSW 01:47:41 10° NNW
H-2A R/B 4.4 01:42:21 10° NNW 01:45:41 24° WNW 01:48:57 10° WSW
SeaSat 1 4.4 01:51:12 10° ENE 01:52:15 11° NE 01:53:22 10° NE
YAOGAN 1 3.8 01:49:06 10° ESE 01:52:22 21° ENE 01:55:38 10° NNE
Cosmos 1825 Rocket 3.5 01:48:43 10° N 01:53:10 82° E 01:57:34 10° S
Cosmos 2219 4.1 01:49:16 10° N 01:54:11 28° ENE 01:59:03 10° ESE
Aureole 3 3.1 01:52:48 10° SSE 01:56:08 44° E 01:59:05 10° NNE
Cosmos 1892 4.1 01:56:33 10° NNE 01:59:23 19° ENE 02:01:24 14° ESE
Cosmos 1315 Rocket 4.3 01:58:04 10° SE 02:00:17 16° E 02:00:17 16° E
Hubble Space Telescope 3.5 02:00:03 10° SW 02:01:35 12° SSW 02:03:07 10° S
CZ-2D R/B 3.6 01:59:36 10° SE 02:03:12 41° ENE 02:06:48 10° N
Delta 2 Rocket 4.1 01:58:42 10° W 02:03:56 75° S 02:08:24 16° ESE
Cosmos 1726 Rocket 3.7 01:59:57 10° S 02:04:16 76° W 02:08:38 10° N
CZ-2C R/B 3.9 02:00:24 10° SE 02:05:37 36° ENE 02:10:45 10° N
Cosmos 1300 3.1 02:02:40 10° SSW 02:06:27 65° W 02:10:14 10° N
Cosmos 1302 Rocket 4.0 02:03:50 10° SSW 02:09:03 84° ESE 02:14:22 10° NNE
Atlas Centaur 2 3.8 02:04:24 10° SW 02:12:10 41° SSE 02:17:56 18° ESE
Okean-O 2.8 02:09:35 10° SSE 02:13:50 48° ENE 02:18:06 10° N
Meteor 2-10 Rocket 4.0 02:09:10 10° SSE 02:14:08 39° E 02:18:57 10° NNE
Timation 2 Rocket 4.1 02:08:07 10° NNW 02:14:44 65° ENE 02:21:30 10° SE
CZ-4B R/B 4.2 02:16:27 10° NNW 02:18:43 18° WNW 02:20:57 10° WSW
ARGOS 4.2 02:18:06 22° E 02:19:03 23° ENE 02:23:16 10° NNE
BREEZE-M TANK 3.9 02:14:01 10° WNW 02:21:06 34° N 02:23:04 21° NE
Meteor 2-1 Rocket 4.5 02:18:28 10° SSE 02:23:37 42° E 02:28:46 10° NNE
NOSS 3-3 (A) 4.0 02:19:32 10° S 02:24:56 50° ESE 02:29:21 18° NE
NOSS 3-3 (C) 4.0 02:19:36 10° S 02:25:03 50° ESE 02:29:28 18° NE
Cosmos 1656 3.6 02:21:06 10° SSW 02:26:37 86° ESE 02:32:16 10° NNE
MOS 1 Rocket 3.5 02:23:57 10° NNE 02:28:31 47° E 02:33:20 10° S
Cosmos 2227 Rocket 2.6 02:25:17 10° N 02:30:37 41° ENE 02:33:07 27° ESE
DMSP B5D1-3 4.5 02:28:13 10° NNE 02:33:19 60° E 02:38:24 10° S
CSL-04 Rocket 4.0 02:28:49 10° SE 02:34:02 44° ENE 02:39:15 10° N
Cosmos 1553 Rocket 4.0 02:28:35 10° S 02:34:59 89° E 02:41:20 10° N
OAO 3 Rocket 3.6 02:32:16 10° W 02:36:56 55° SSW 02:38:53 32° SE
SL-08 ROCKET BODY 4.4 02:32:41 10° N 02:38:45 63° E 02:44:51 10° SSE
Cosmos 1340 2.6 02:35:17 10° N 02:39:04 88° W 02:42:49 10° S
Helios 1A Rocket 3.1 02:35:16 10° S 02:39:23 71° WSW 02:43:30 10° NNW
GEOS 3 Rocket 4.2 02:38:25 34° E 02:39:40 39° NE 02:44:37 10° NNW
Cosmos 1939 Rocket 4.1 02:36:37 10° S 02:40:25 42° W 02:44:12 10° NNW
BREEZE-M DEB (TANK) 3.9 02:38:28 10° SW 02:42:12 77° SE 02:50:32 18° NE
Cosmos 1697 Rocket 2.6 02:38:40 10° S 02:44:10 62° ESE 02:47:49 22° NNE
ASTRO E2 3.8 02:42:34 10° SW 02:46:03 30° S 02:46:10 30° SSE
H-2A R/B 2.1 02:43:42 12° SSE 02:48:38 59° ENE 02:54:00 10° N
Cosmos 1992 Rocket 3.8 02:45:01 10° S 02:50:13 78° ESE 02:54:08 18° NNE
Cosmos 220 Rocket 3.8 02:45:56 10° SSW 02:50:15 85° ESE 02:52:04 35° NNE
Cosmos 1455 2.7 02:52:10 10° S 02:54:54 47° S 02:54:54 47° S
Meteor 2-15 Rocket 4.3 02:50:08 10° S 02:56:16 82° E 03:02:27 10° N
CZ-4 R/B 2.3 02:57:15 10° S 03:01:02 46° W 03:04:47 10° NNW
GPS 2-04 Rocket1 4.3 03:00:27 10° SW 03:03:00 27° S 03:03:00 27° S
Cosmos 2058 3.6 03:00:22 10° N 03:03:08 42° N 03:03:08 42° N
Cosmos 44 Rocket 4.0 03:01:18 10° SSW 03:04:22 38° S 03:04:22 38° S
Cosmos 1980 Rocket 3.0 03:00:41 10° S 03:04:12 35° SSE 03:04:12 35° SSE
Cosmos 1745 Rocket 3.9 02:59:46 10° N 03:06:06 90° ESE 03:12:27 10° S
Cosmos 2297 Rocket 2.3 03:05:11 10° NNW 03:10:51 73° WSW 03:14:00 27° S
CSL-04 Debris 4.2 03:06:58 10° S 03:12:22 79° WSW 03:17:50 10° NNW
Cosmos 2360 4.1 03:10:44 10° SSW 03:16:27 90° ESE 03:17:40 58° NNE
OAO 2 Rocket 3.9 03:21:53 10° WSW 03:25:44 51° SW 03:25:44 51° SW
YAOGAN 1 4.4 03:24:30 10° SSW 03:28:16 29° W 03:32:03 10° NW
SeaSat 1 3.5 03:31:01 36° NNW 03:31:01 36° NNW 03:33:54 10° NNW
Cosmos 2278 4.3 03:26:28 10° SSW 03:30:22 46° SSW 03:30:22 46° SSW
Cosmos 1709 Rocket 4.0 03:29:43 10° N 03:35:19 70° N 03:35:19 70° N
Cosmos 2219 4.5 03:33:06 10° NW 03:38:23 38° WSW 03:42:03 18° SSW
Cosmos 2315 Rocket 4.3 03:39:29 10° SSW 03:49:08 28° N 03:51:52 10° N
ARGOS 4.3 03:59:38 40° W 03:59:38 40° W 04:04:08 10° NNW
Atlas Centaur 2 3.4 03:53:19 10° WSW 04:00:32 52° SSW 04:00:32 52° SSW
Milstar 3 3.8 04:03:43 10° WSW 04:08:18 36° SW 04:08:18 36° SW
Cosmos 2227 Rocket 4.1 04:09:55 10° NW 04:14:22 24° WSW 04:15:02 24° WSW
ATLAS 2AS CENTAUR R/B 4.5 04:26:20 10° NNW 04:29:06 23° NNW 04:29:06 23° NNW
CENTAUR R/B 4.3 10:44:29 25° NE 10:44:29 25° NE 10:47:22 10° NE
CZ-3 R/B 4.5 10:42:21 46° SSW 10:50:41 54° S 11:02:58 10° E
ATLAS 3B R/B 4.2 11:23:35 16° SSE 11:27:45 30° ESE 11:33:19 10° NE
COSMOS 2406 4.0 11:30:19 47° ESE 11:30:19 47° ESE 11:35:41 10° NE
Cosmos 2344 3.9 11:37:03 47° NNW 11:37:03 47° NNW 11:43:14 10° NNE
Cosmos 2279 Rocket 4.5 11:29:54 10° N 11:36:00 57° E 11:42:03 10° SSE
ADEOS Rocket 3.3 11:40:39 10° SSE 11:46:00 55° ENE 11:51:23 10° N
ISS -0.7 11:52:01 14° NE 11:52:01 14° NE 11:52:33 10° NE
